Weather History for KTVK - January, 2013

Change the Weather History Date:

Thursday, January 24, 2013

  Actual Average Record
Temperature  
Mean Temperature 13 °F -  
Max Temperature 21 °F 35 °F 59 °F (1967)
Min Temperature 5 °F 15 °F -10 °F (1963)
Degree Days  
Heating Degree Days 52    
Moisture  
Dew Point -1 °F    
Average Humidity 55    
Maximum Humidity 72    
Minimum Humidity 38    
Precipitation  
Precipitation 0.00 in - - ()
Sea Level Pressure  
Sea Level Pressure 30.43 in    
Wind  
Wind Speed 12 mph (East)    
Max Wind Speed 16 mph    
Max Gust Speed 18 mph    
Visibility 10 miles    
Events      
Averages and records for this station are not official NWS values.
T = Trace of Precipitation, MM = Missing Value Source: NWS Daily Summary

Daily Weather History Graph

Daily Weather History Graph

Search for Another Location

Airport or City:

Trip Planner

Search our weather history database for the weather conditions in past years. The results will help you decide how hot, cold, wet, or windy it might be!

Date:

Astronomy

Jan. 24, 2013 Rise Set
Actual Time 7:28 AM CST 5:19 PM CST
Civil Twilight 6:58 AM CST 5:49 PM CST
Nautical Twilight 6:25 AM CST 6:22 PM CST
Astronomical Twilight 5:53 AM CST 6:55 PM CST
Moon 3:22 PM CST (1/24) 5:26 AM CST (1/24)
Length of Visible Light 10h 50m
Length of Day
9h 51m
Waxing Gibbous, 94% of the Moon is Illuminated
Jan 24
Waxing Gibbous
Jan 26
Full
Feb 3
Last Quarter
Feb 10
New
Feb 17
First Quarter

Hourly Weather History & Observations

Time (CST) Temp. Windchill Dew Point Humidity Pressure Visibility Wind Dir Wind Speed Gust Speed Precip Events Conditions
12:15 AM 8.6 °F -8.3 °F -0.4 °F 67% 30.48 in 10.0 mi NNW 15.0 mph 18.4 mph N/A   Clear
12:35 AM 8.6 °F -7.0 °F -0.4 °F 67% 30.49 in 10.0 mi North 12.7 mph - N/A   Clear
12:55 AM 6.8 °F -8.6 °F -0.4 °F 72% 30.50 in 10.0 mi North 11.5 mph - N/A   Clear
1:15 AM 6.8 °F -10.0 °F -2.2 °F 67% 30.51 in 10.0 mi North 13.8 mph - N/A   Clear
1:35 AM 6.8 °F -6.9 °F -2.2 °F 67% 30.51 in 10.0 mi North 9.2 mph - N/A   Clear
1:55 AM 6.8 °F -8.6 °F -2.2 °F 67% 30.51 in 10.0 mi North 11.5 mph - N/A   Clear
2:15 AM 6.8 °F -10.7 °F -2.2 °F 67% 30.51 in 10.0 mi North 15.0 mph - N/A   Clear
2:35 AM 6.8 °F -8.6 °F -2.2 °F 67% 30.52 in 10.0 mi North 11.5 mph - N/A   Clear
2:55 AM 6.8 °F -10.0 °F -2.2 °F 67% 30.52 in 10.0 mi North 13.8 mph - N/A   Clear
3:15 AM 5.0 °F -10.8 °F -2.2 °F 72% 30.52 in 10.0 mi North 11.5 mph - N/A   Clear
3:35 AM 5.0 °F -12.3 °F -2.2 °F 72% 30.53 in 10.0 mi North 13.8 mph - N/A   Clear
3:55 AM 5.0 °F -10.0 °F -2.2 °F 72% 30.54 in 10.0 mi North 10.4 mph - N/A   Clear
4:15 AM 5.0 °F -8.1 °F -2.2 °F 72% 30.54 in 10.0 mi NNE 8.1 mph - N/A   Clear
4:55 AM 5.0 °F -6.9 °F -4.0 °F 66% 30.55 in 10.0 mi NE 6.9 mph - N/A   Clear
5:15 AM 5.0 °F -8.1 °F -4.0 °F 66% 30.55 in 10.0 mi NNE 8.1 mph - N/A   Clear
5:35 AM 5.0 °F -6.9 °F -4.0 °F 66% 30.55 in 10.0 mi NNE 6.9 mph - N/A   Clear
6:15 AM 5.0 °F -6.9 °F -4.0 °F 66% 30.54 in 10.0 mi NE 6.9 mph - N/A   Clear
6:35 AM 5.0 °F -6.9 °F -4.0 °F 66% 30.55 in 10.0 mi NE 6.9 mph - N/A   Clear
6:55 AM 5.0 °F -6.9 °F -5.8 °F 61% 30.56 in 10.0 mi NE 6.9 mph - N/A   Clear
7:15 AM 5.0 °F -8.1 °F -4.0 °F 66% 30.55 in 10.0 mi NE 8.1 mph - N/A   Clear
7:55 AM 5.0 °F -9.1 °F -4.0 °F 66% 30.57 in 10.0 mi NE 9.2 mph - N/A   Clear
8:15 AM 5.0 °F -6.9 °F -4.0 °F 66% 30.59 in 10.0 mi NE 6.9 mph - N/A   Clear
8:35 AM 5.0 °F -8.1 °F -4.0 °F 66% 30.58 in 10.0 mi ENE 8.1 mph - N/A   Clear
8:55 AM 6.8 °F -9.3 °F -4.0 °F 61% 30.58 in 10.0 mi ENE 12.7 mph - N/A   Clear
9:15 AM 6.8 °F -5.9 °F -4.0 °F 61% 30.59 in 10.0 mi ENE 8.1 mph - N/A   Clear
9:35 AM 6.8 °F -7.8 °F -4.0 °F 61% 30.59 in 10.0 mi ENE 10.4 mph - N/A   Clear
9:55 AM 8.6 °F -3.7 °F -2.2 °F 62% 30.59 in 10.0 mi East 8.1 mph - N/A   Clear
10:15 AM 8.6 °F -6.3 °F -2.2 °F 62% 30.57 in 10.0 mi ENE 11.5 mph - N/A   Clear
10:35 AM 10.4 °F -4.1 °F -2.2 °F 57% 30.57 in 10.0 mi East 11.5 mph - N/A   Clear
10:55 AM 10.4 °F -3.3 °F -2.2 °F 57% 30.56 in 10.0 mi East 10.4 mph - N/A   Clear
11:15 AM 12.2 °F -2.5 °F -2.2 °F 53% 30.54 in 10.0 mi East 12.7 mph - N/A   Clear
11:35 AM 14.0 °F -1.4 °F -2.2 °F 49% 30.52 in 10.0 mi East 15.0 mph 18.4 mph N/A   Clear
11:55 AM 14.0 °F 1.2 °F -2.2 °F 49% 30.53 in 10.0 mi East 10.4 mph 16.1 mph N/A   Clear
12:15 PM 14.0 °F -0.2 °F -4.0 °F 45% 30.50 in 10.0 mi East 12.7 mph 16.1 mph N/A   Clear
12:35 PM 14.0 °F -1.4 °F -4.0 °F 45% 30.47 in 10.0 mi East 15.0 mph - N/A   Clear
12:55 PM 15.8 °F 1.4 °F -4.0 °F 41% 30.46 in 10.0 mi ESE 13.8 mph - N/A   Clear
1:15 PM 15.8 °F 2.7 °F -4.0 °F 41% 30.45 in 10.0 mi East 11.5 mph 17.3 mph N/A   Clear
1:35 PM 15.8 °F 2.1 °F -4.0 °F 41% 30.43 in 10.0 mi ESE 12.7 mph 18.4 mph N/A   Clear
1:55 PM 17.6 °F 3.2 °F -4.0 °F 38% 30.42 in 10.0 mi SE 15.0 mph - N/A   Clear
2:15 PM 17.6 °F 3.7 °F -4.0 °F 38% 30.40 in 10.0 mi ESE 13.8 mph 18.4 mph N/A   Clear
2:35 PM 17.6 °F 5.0 °F -4.0 °F 38% 30.41 in 10.0 mi East 11.5 mph - N/A   Clear
2:55 PM 17.6 °F 5.0 °F -4.0 °F 38% 30.40 in 10.0 mi ESE 11.5 mph - N/A   Clear
3:15 PM 17.6 °F 3.7 °F -4.0 °F 38% 30.39 in 10.0 mi ESE 13.8 mph - N/A   Clear
3:35 PM 17.6 °F 5.7 °F -2.2 °F 42% 30.38 in 10.0 mi ESE 10.4 mph - N/A   Clear
3:55 PM 17.6 °F 3.7 °F -2.2 °F 42% 30.36 in 10.0 mi ESE 13.8 mph - N/A   Clear
4:15 PM 17.6 °F 5.0 °F -2.2 °F 42% 30.36 in 10.0 mi ESE 11.5 mph - N/A   Clear
4:35 PM 17.6 °F 5.0 °F -0.4 °F 45% 30.34 in 10.0 mi East 11.5 mph - N/A   Clear
4:55 PM 17.6 °F 5.0 °F -0.4 °F 45% 30.34 in 10.0 mi ESE 11.5 mph - N/A   Clear
5:15 PM 17.6 °F 4.3 °F -0.4 °F 45% 30.33 in 10.0 mi ESE 12.7 mph - N/A   Clear
5:35 PM 17.6 °F 5.0 °F -0.4 °F 45% 30.32 in 10.0 mi ESE 11.5 mph - N/A   Clear
5:55 PM 17.6 °F 7.3 °F -0.4 °F 45% 30.33 in 10.0 mi East 8.1 mph - N/A   Clear
6:15 PM 17.6 °F 6.4 °F -0.4 °F 45% 30.33 in 10.0 mi ESE 9.2 mph - N/A   Clear
6:35 PM 19.4 °F 7.2 °F 1.4 °F 46% 30.31 in 10.0 mi ESE 11.5 mph - N/A   Clear
6:55 PM 19.4 °F 6.0 °F 1.4 °F 46% 30.30 in 10.0 mi ESE 13.8 mph - N/A   Clear
7:15 PM 19.4 °F 5.0 °F 3.2 °F 49% 30.27 in 10.0 mi ESE 16.1 mph - N/A   Clear
7:35 PM 19.4 °F 7.9 °F 3.2 °F 49% 30.27 in 10.0 mi ESE 10.4 mph - N/A   Clear
7:55 PM 19.4 °F 5.0 °F 3.2 °F 49% 30.26 in 10.0 mi ESE 16.1 mph - N/A   Clear
8:15 PM 19.4 °F 6.6 °F 3.2 °F 49% 30.24 in 10.0 mi ESE 12.7 mph - N/A   Mostly Cloudy
8:35 PM 19.4 °F 6.0 °F 5.0 °F 54% 30.25 in 10.0 mi SE 13.8 mph 17.3 mph N/A   Scattered Clouds
8:55 PM 19.4 °F 6.6 °F 5.0 °F 54% 30.24 in 10.0 mi ESE 12.7 mph - N/A   Mostly Cloudy
9:15 PM 19.4 °F 7.2 °F 5.0 °F 54% 30.27 in 10.0 mi SE 11.5 mph - N/A   Overcast
9:35 PM 21.2 °F 10.1 °F 5.0 °F 50% 30.26 in 10.0 mi SE 10.4 mph - N/A   Overcast
9:55 PM 21.2 °F 9.5 °F 5.0 °F 50% 30.26 in 10.0 mi SE 11.5 mph - N/A   Overcast
10:15 PM 21.2 °F 8.9 °F 5.0 °F 50% 30.24 in 10.0 mi SE 12.7 mph - N/A   Overcast
10:35 PM 21.2 °F 8.9 °F 5.0 °F 50% 30.24 in 10.0 mi SE 12.7 mph - N/A   Overcast
10:55 PM 21.2 °F 10.9 °F 5.0 °F 50% 30.24 in 10.0 mi SSE 9.2 mph - N/A   Overcast
11:15 PM 21.2 °F 9.5 °F 6.8 °F 54% 30.22 in 10.0 mi SE 11.5 mph - N/A   Overcast
11:35 PM 21.2 °F 10.9 °F 6.8 °F 54% 30.23 in 10.0 mi SSE 9.2 mph - N/A   Overcast
11:55 PM 21.2 °F 12.6 °F 6.8 °F 54% 30.23 in 10.0 mi SSE 6.9 mph - N/A   Overcast